AO-07 1 07530U 74089B 21063.80339419 -.00000028 00000-0 10873-3 0 9995 2 07530 101.8420 38.4674 0011970 222.4803 254.1375 12.53647581118856 UO-11 1 14781U 84021B 21063.49402140 .00000154 00000-0 24927-4 0 9990 2 14781 97.5923 68.5104 0009905 70.4918 289.7366 14.83253960970372 LO-19 1 20442U 90005G 21063.54131978 .00000078 00000-0 44983-4 0 9993 2 20442 98.7285 18.1279 0012821 107.9049 252.3534 14.32978032625809 HUBBLE 1 20580U 90037B 21063.25485969 .00000720 00000-0 32688-4 0 9994 2 20580 28.4707 41.1140 0002691 15.6890 4.1968 15.09572440495185 MET-2/21 1 22782U 93055A 21063.62274612 .00000069 00000-0 48485-4 0 9993 2 22782 82.5508 27.1054 0021391 223.2747 310.6815 13.83833120389290 AO-27 1 22825U 93061C 21063.50224450 -.00000005 00000-0 15991-4 0 9997 2 22825 98.9242 78.5060 0008114 347.5284 12.5696 14.30107652430980 IO-26 1 22826U 93061D 21063.07776918 -.00000003 00000-0 16744-4 0 9996 2 22826 98.9184 77.9897 0008433 335.4444 24.6335 14.30445490431165 FO-29 1 24278U 96046B 21063.45037962 -.00000054 00000-0 -20402-4 0 9999 2 24278 98.5775 145.2960 0351198 61.7441 301.8679 13.53102135212040 NOAA-15 1 25338U 98030A 21063.82096343 .00000010 00000-0 22732-4 0 9999 2 25338 98.6945 93.2211 0009755 220.6290 139.4163 14.26015572186330 GO-32 1 25397U 98043D 21063.69036917 .00000009 00000-0 23220-4 0 9995 2 25397 98.7600 9.5941 0002057 54.6955 305.4415 14.23702447176802 ISS 1 25544U 98067A 21063.64885076 .00002363 00000-0 50979-4 0 9994 2 25544 51.6453 139.7769 0003228 73.3524 20.8683 15.49039888272392 NO-44 1 26931U 01043C 21063.38146265 -.00000015 00000-0 26155-4 0 9996 2 26931 67.0511 191.6039 0007373 267.8292 92.1965 14.30608404 14218 SO-50 1 27607U 02058C 21063.39841001 .00000068 00000-0 30155-4 0 9997 2 27607 64.5553 299.5866 0030820 64.6840 295.7449 14.75718424979051 CO-55 1 27844U 03031E 21063.44638179 .00000069 00000-0 50561-4 0 9992 2 27844 98.6831 73.2397 0010331 28.9944 331.1806 14.22291902917053 CO-57 1 27848U 03031J 21063.47878503 .00000048 00000-0 41391-4 0 9994 2 27848 98.6889 73.8395 0010430 41.2513 318.9451 14.21871080916894 RS-22 1 27939U 03042A 21063.75019558 .00000166 00000-0 38440-4 0 9997 2 27939 98.1219 201.6848 0011653 246.8531 113.1453 14.66949938932175 NOAA-18 1 28654U 05018A 21063.47490595 .00000083 00000-0 69111-4 0 9997 2 28654 99.0076 127.8651 0013849 214.7499 145.2769 14.12586219813622 CO-58 1 28895U 05043F 21063.30109659 .00000220 00000-0 50997-4 0 9997 2 28895 98.0405 198.9449 0016974 177.2804 182.8494 14.63872695818622 Falconsat-3 1 30776U 07006E 21063.36193457 .00007185 00000-0 17800-3 0 9996 2 30776 35.4348 55.1334 0001950 350.6320 9.4371 15.39742060776895 CO-65 1 32785U 08021C 21063.41016461 .00000449 00000-0 53782-4 0 9997 2 32785 97.6013 46.3962 0012902 358.5973 1.5206 14.88646995696619 AAUSAT2 1 32788U 08021F 21063.44297110 .00000546 00000-0 54290-4 0 9998 2 32788 97.5015 62.5362 0010159 262.0171 97.9897 14.95419941698162 DO-64 1 32789U 08021G 21063.36391745 .00002533 00000-0 16571-3 0 9996 2 32789 97.3896 102.7372 0013205 138.4557 221.7678 15.08567046700988 CO-66 1 32791U 08021J 21063.42634814 .00000623 00000-0 67889-4 0 9990 2 32791 97.5634 52.4179 0012214 322.0395 37.9962 14.91297643697206 RS-30 1 32953U 08025A 21063.59969405 .00000028 00000-0 12906-3 0 9997 2 32953 82.5029 116.1530 0019239 202.1884 157.8369 12.43100214579958 PRISM 1 33493U 09002B 21063.16090678 .00001778 00000-0 15801-3 0 9993 2 33493 98.1768 20.7230 0013120 276.3444 83.6282 14.97470617658569 NOAA-19 1 33591U 09005A 21063.78248304 -.00000010 00000-0 19847-4 0 9998 2 33591 99.1920 81.8519 0014811 67.9405 292.3337 14.12454198622144 TISAT-1 1 36799U 10035E 21063.47246831 .00000752 00000-0 80966-4 0 9997 2 36799 98.2050 250.0338 0011906 192.0654 168.0280 14.91623624577681 JUGNU 1 37839U 11058B 21063.58242977 .00000340 00000-0 39525-4 0 9996 2 37839 19.9606 145.2066 0019069 16.6326 119.6375 14.12705637485720 SRMSAT 1 37841U 11058D 21063.52259731 .00000330 00000-0 36171-4 0 9992 2 37841 19.9709 215.2807 0011758 221.0688 193.2570 14.10686810484877 AO-71 1 37854U 11061E 21063.30888963 .00002961 00000-0 15206-3 0 9998 2 37854 101.7090 295.1600 0155731 8.6785 351.7065 15.08227999510630 HRBE 1 37855U 11061F 21063.22318135 .00002727 00000-0 13834-3 0 9994 2 37855 101.7232 292.0640 0168188 23.6205 337.2616 15.07263417510324 HORYU-2 1 38340U 12025D 21063.40869147 .00000276 00000-0 47974-4 0 9999 2 38340 98.2455 128.7525 0010187 293.0322 66.9812 14.75985626462895 RS-40 1 38735U 12041C 21063.76118305 .00000023 00000-0 96664-4 0 9997 2 38735 82.4778 198.3498 0016518 316.6848 43.2933 12.42582205390189 BEESAT-3 1 39135U 13015F 21063.44782162 .00002763 00000-0 14068-3 0 9997 2 39135 64.8678 181.3097 0010954 197.4220 162.6533 15.18998045434697 BEESAT-2 1 39136U 13015G 21063.46797562 .00002714 00000-0 13985-3 0 9993 2 39136 64.8765 187.2080 0027758 256.5225 103.2808 15.18379451434560 ZACUBE-1 1 39417U 13066B 21063.42321339 .00000359 00000-0 50852-4 0 9990 2 39417 97.5851 53.2434 0059537 144.2669 216.2552 14.81439659393528 TRITON-1 1 39427U 13066M 21063.70361461 .00000445 00000-0 78701-4 0 9991 2 39427 97.7630 16.7231 0112723 326.5301 32.8815 14.68167336390032 GOMX-1 1 39430U 13066Q 21063.85112081 .00000308 00000-0 64013-4 0 9992 2 39430 97.8117 352.9477 0152078 84.3394 277.5125 14.59545118387780 LO-74 1 39440U 13066AA 21063.66072723 .00000318 00000-0 51013-4 0 9997 2 39440 97.6642 38.2547 0078981 214.7226 144.8815 14.76174427392167 AO-73 1 39444U 13066AE 21063.53862051 .00000428 00000-0 58188-4 0 9990 2 39444 97.5768 55.6931 0058821 134.9169 225.6841 14.82330236392480 SPROUT 1 39770U 14029E 21063.52986595 .00000921 00000-0 10579-3 0 9990 2 39770 97.9063 174.9802 0008765 185.2558 174.8568 14.88214718367732 DUCHIFAT-1 1 40021U 14033M 21063.32580572 .00000740 00000-0 80286-4 0 9991 2 40021 97.9640 2.4703 0013454 145.3937 214.8159 14.91205021364614 NANOSATCBR1 1 40024U 14033Q 21063.29564328 .00000736 00000-0 81517-4 0 9994 2 40024 97.9447 357.9101 0012673 150.3063 209.8876 14.90325050363938 DTUSAT-2 1 40030U 14033W 21063.51884899 .00000451 00000-0 54036-4 0 9994 2 40030 97.9129 350.8192 0012339 153.6697 206.5149 14.88906813364210 EO-80 1 40032U 14033Y 21063.34454512 .00000517 00000-0 61121-4 0 9998 2 40032 97.9136 350.6501 0012248 155.2506 204.9300 14.88861125363652 ANTELSAT 1 40034U 14033AA 21063.54307897 .00000325 00000-0 55098-4 0 9998 2 40034 97.6882 272.3679 0057293 237.2686 122.2993 14.74411334360738 VELOX-1 1 40057U 14034E 21063.81200696 .00000428 00000-0 66868-4 0 9994 2 40057 98.3112 214.5018 0011559 38.9704 321.2340 14.78082460360087 DAURIA DX 1 1 40071U 14037C 21063.83094037 .00000162 00000-0 28236-4 0 9997 2 40071 98.4582 262.7065 0009133 30.6001 329.5739 14.81459752359803 HODOYOSHI-1 1 40299U 14070B 21063.81990543 .00001052 00000-0 45553-4 0 9991 2 40299 97.2960 140.1978 0012733 6.5194 102.3667 15.24510201351476 CHUBUSAT-1 1 40300U 14070C 21063.71077966 .00001093 00000-0 49200-4 0 9996 2 40300 97.2548 130.6740 0020516 21.2769 94.5227 15.22984436351110 QSAT-EOS 1 40301U 14070D 21063.80147993 .00003164 00000-0 11713-3 0 9993 2 40301 97.2644 138.0670 0023855 349.4393 136.0858 15.28137502351672 FIREBIRD FU3 1 40377U 15003B 21063.63094954 .00006845 00000-0 25263-3 0 9996 2 40377 99.0830 183.0885 0120090 163.7459 196.7677 15.21626980336850 FIREBIRD FU4 1 40378U 15003C 21063.54497841 .00008076 00000-0 29671-3 0 9994 2 40378 99.0836 183.1088 0120177 163.8850 196.6257 15.21670999336846 GRIFEX 1 40379U 15003D 21063.51733370 .00005095 00000-0 20864-3 0 9995 2 40379 99.0816 173.2752 0129825 194.1534 165.6044 15.17484181336265 NO-84 1 40654U 15025D 21062.37175693 .00037574 00000-0 31767-3 0 2080 2 40654 54.9820 180.1345 0093241 143.1351 217.6660 15.63816972209386 DEORBITSAIL 1 40719U 15032E 21063.42217521 .00000629 00000-0 95570-4 0 9995 2 40719 97.8422 311.2377 0017683 87.0983 273.2251 14.77256025304478 NUDT-PHONESAT 1 40900U 15049B 21063.79439787 .00004058 00000-0 16208-3 0 9995 2 40900 97.4252 78.6249 0013398 141.4063 304.1063 15.25630545302865 XW-2A 1 40903U 15049E 21063.83559456 .00004235 00000-0 92922-4 0 9994 2 40903 97.2513 118.6047 0013667 44.0431 76.2021 15.44523984306643 XW-2C 1 40906U 15049H 21063.86000095 .00001162 00000-0 62920-4 0 9991 2 40906 97.4852 67.5398 0014484 183.7772 294.3436 15.16522061301712 XW-2D 1 40907U 15049J 21063.81053534 .00001240 00000-0 66384-4 0 9998 2 40907 97.4843 67.2524 0013847 180.1491 303.5563 15.16812690301738 LILACSAT-2 1 40908U 15049K 21063.82431775 .00000384 00000-0 24554-4 0 9998 2 40908 97.5019 65.2590 0015262 195.6090 286.5200 15.14307859301399 XW-2E 1 40909U 15049L 21063.73205510 .00001843 00000-0 90730-4 0 9995 2 40909 97.4667 71.0473 0013659 168.4683 307.7365 15.19167322302031 XW-2F 1 40910U 15049M 21063.82611226 .00001603 00000-0 80481-4 0 9998 2 40910 97.4722 70.2166 0014849 167.7630 271.3074 15.18670169301849 XW-2B 1 40911U 15049N 21063.80773345 .00001289 00000-0 69040-4 0 9996 2 40911 97.4838 67.9432 0013501 181.8270 302.2049 15.16732987301625 DCBB 1 40912U 15049P 21063.80735014 .00002081 00000-0 96310-4 0 9999 2 40912 97.4472 74.5368 0015592 143.3990 341.7673 15.21160036302286 TW-1A 1 40928U 15051D 21063.82423924 .00006496 00000-0 14077-3 0 9998 2 40928 97.0872 91.2606 0008241 326.5156 119.3665 15.44723577305537 IO-86 1 40931U 15052B 21060.14136084 .00000538 00000-0 -14302-4 0 9997 2 40931 6.0030 304.8434 0014585 308.6709 51.1537 14.76663273293269 LQSat 1 40958U 15057A 21063.80852961 .00000046 00000-0 14577-4 0 9993 2 40958 97.8173 124.1951 0018960 37.2007 323.0502 14.73158757290834 ATHENOXAT-1 1 41168U 15077C 21062.04760249 .00003200 00000-0 12868-3 0 9996 2 41168 14.9933 323.0931 0012737 120.5432 358.0748 15.15257573288610 ChubuSat-2 1 41338U 16012B 21063.49512448 .00000568 00000-0 37244-4 0 9991 2 41338 31.0030 133.2843 0013591 173.5958 186.4852 15.00455437276822 ChubuSat-3 1 41339U 16012C 21063.79470475 .00000511 00000-0 32688-4 0 9993 2 41339 31.0117 128.7172 0013111 184.6308 175.4200 15.00609536276863 Horyu-4 1 41340U 16012D 21063.47455319 .00000884 00000-0 59551-4 0 9991 2 41340 31.0051 115.5951 0013732 210.5175 149.4662 15.01767100276991 OUFTI-1 1 41458U 16025C 21063.30300047 .00003488 00000-0 17146-3 0 9990 2 41458 98.1261 194.2080 0160911 54.6134 307.0004 15.08090445266628 e-st@r-II 1 41459U 16025D 21063.82887529 .00003153 00000-0 15714-3 0 9991 2 41459 98.1243 193.9413 0162260 55.6758 305.9731 15.07562141266650 AAUSAT4 1 41460U 16025E 21063.66468887 .00003285 00000-0 15708-3 0 9996 2 41460 98.1243 197.1376 0149973 41.6087 319.6441 15.10372791266892 LO-87 1 41557U 16033B 21063.83780429 .00002614 00000-0 95460-4 0 9999 2 41557 97.3932 158.4152 0011610 241.7218 236.9194 15.28966860265544 NuSat2 1 41558U 16033C 21063.85074884 .00002939 00000-0 10045-3 0 9998 2 41558 97.4022 161.7756 0010698 234.7974 243.6657 15.31052353265714 Lapan A3 1 41603U 16040E 21063.85299678 .00000362 00000-0 19844-4 0 9992 2 41603 97.2717 114.6692 0013727 17.8085 68.6758 15.19972314260692 Swayam 1 41607U 16040J 21063.42126026 .00003585 00000-0 14491-3 0 9997 2 41607 97.2822 122.2777 0012404 357.6998 2.4181 15.25301126261030 Pratham 1 41783U 16059A 21063.42147845 .00000088 00000-0 26095-4 0 9993 2 41783 97.9801 117.0471 0032814 215.1848 144.7187 14.63116476236896 AlSat 1N 1 41789U 16059G 21063.69182868 .00000118 00000-0 31035-4 0 9996 2 41789 97.9841 120.7476 0027887 199.4139 160.5997 14.64393593237112 ScatSat 1 41790U 16059H 21063.87902265 .00000034 00000-0 20083-4 0 9997 2 41790 98.3834 106.2528 0004834 185.8402 174.2728 14.50798021234983 TY-1 1 41844U 16066D 21063.78315023 .00001518 00000-0 62680-4 0 9992 2 41844 97.4020 75.0870 0015917 141.6443 334.6460 15.25471444239948 Pegasus-1 1 41846U 16066F 21063.13154726 .00000498 00000-0 85127-4 0 9991 2 41846 98.6255 121.4330 0366477 179.3016 180.8761 14.37956143226288 CAS-2T 1 41847U 16066G 21063.69933324 .00000180 00000-0 37115-4 0 9994 2 41847 98.6166 122.3271 0365667 172.8617 187.7985 14.38153954226823 EO-88 1 42017U 17008BX 21063.44781592 .00003872 00000-0 14610-3 0 9997 2 42017 97.3275 132.9074 0007654 116.0382 244.1647 15.27605142225222 CAS-4B 1 42759U 17034B 21063.78814811 .00000526 00000-0 45101-4 0 9990 2 42759 43.0177 36.4440 0009924 236.8702 194.3519 15.10095326205320 CAS-4A 1 42761U 17034D 21063.78468964 .00000509 00000-0 43994-4 0 9996 2 42761 43.0181 35.5931 0010591 237.3905 192.8920 15.10176200205326 UCLSat 1 42765U 17036A 21063.18494852 .00002968 00000-0 12376-3 0 9991 2 42765 97.2650 116.0190 0010976 180.8303 179.2919 15.24404583206135 NIUSat 1 42766U 17036B 21063.35929086 .00002015 00000-0 89988-4 0 9990 2 42766 97.2655 112.9203 0015184 179.5993 180.5258 15.22385331205224 LituanicaSAT 2 1 42768U 17036D 21063.42127422 .00005436 00000-0 21661-3 0 9997 2 42768 97.2719 116.7445 0014492 170.9594 189.1908 15.25528725205451 Aalto 1 1 42775U 17036L 21063.13338466 .00001675 00000-0 75327-4 0 9995 2 42775 97.2628 112.9964 0013619 178.7840 181.3433 15.22392854205177 URSA MAIOR 1 42776U 17036M 21063.81033130 .00001684 00000-0 75163-4 0 9999 2 42776 97.2641 114.0587 0013518 175.8696 184.2655 15.22632783205291 Max Valier Sat 1 42778U 17036P 21063.80259746 .00001726 00000-0 75597-4 0 9991 2 42778 97.2703 115.7830 0012112 177.3080 182.8224 15.23268603205354 Pegasus 1 42784U 17036V 21063.79316283 .00002363 00000-0 10022-3 0 9995 2 42784 97.2656 116.1856 0011565 180.6697 179.4528 15.24018739205413 NUDATSat 1 42787U 17036Y 21063.59716723 .00003334 00000-0 13331-3 0 9994 2 42787 97.2700 118.0701 0010612 173.7674 186.3701 15.25733290205345 SUCHAI 1 1 42788U 17036Z 21063.38427770 .00003191 00000-0 13160-3 0 9994 2 42788 97.2666 116.6470 0011127 179.1149 181.0110 15.24722354205471 SKCUBE 1 42789U 17036AA 21063.39650747 .00002895 00000-0 12046-3 0 9990 2 42789 97.2660 116.4189 0011003 179.6075 180.5174 15.24496187205383 VZLUSAT 1 1 42790U 17036AB 21063.39299091 .00003994 00000-0 15926-3 0 9994 2 42790 97.2690 117.8622 0010574 175.3505 184.7833 15.25712676205460 VENTA 1 1 42791U 17036AC 21063.30909305 .00002871 00000-0 11960-3 0 9999 2 42791 97.2657 116.3589 0010682 180.1417 179.9819 15.24461481205369 Robusta 1B 1 42792U 17036AD 21063.77499950 .00002796 00000-0 11565-3 0 9998 2 42792 97.2663 117.1256 0010643 178.0277 182.1005 15.24721185205479 D-SAT 1 42794U 17036AF 21063.50116963 .00000379 00000-0 38102-4 0 9993 2 42794 97.4712 88.9219 0124891 216.0682 143.2065 14.91469481201411 TechnoSat 1 42829U 17042E 21063.64553166 .00000275 00000-0 32906-4 0 9995 2 42829 97.4855 298.6500 0015271 132.7884 227.4623 14.91228467198068 QIKCOM-1 1 42983U 98067NF 21063.60458681 .00010551 00000-0 11112-3 0 9997 2 42983 51.6372 71.3799 0003107 329.4325 30.6489 15.64899855190973 AO-91 1 43017U 17073E 21063.50091884 .00001218 00000-0 10007-3 0 9993 2 43017 97.7146 331.6201 0254177 282.8524 74.4405 14.79363217177602 EcAMSat 1 43019U 98067NG 21063.84768102 .00025995 00000-0 18420-3 0 9993 2 43019 51.6414 43.8338 0002543 339.8066 20.2832 15.73771335273683 PICSAT 1 43132U 18004X 21063.44532437 .00003287 00000-0 13297-3 0 9995 2 43132 97.4180 138.9221 0008442 209.1837 150.8930 15.25395501174675 AO-92 1 43137U 18004AC 21063.48410386 .00002501 00000-0 10346-3 0 9992 2 43137 97.4162 138.5689 0008006 211.5990 148.4768 15.24873825174667 TianYi 2 1 43155U 18008A 21063.85609471 .00001667 00000-0 10004-3 0 9995 2 43155 97.4155 131.9209 0016457 335.3312 136.1042 15.12171631172262 Zhou Enlai 1 43156U 18008B 21063.82830590 .00001172 00000-0 72346-4 0 9990 2 43156 97.4193 131.7309 0013502 336.3079 130.8189 15.11752326172205 TianYi 6 1 43158U 18008D 21063.67665060 .00001238 00000-0 77323-4 0 9996 2 43158 97.4142 130.3049 0013088 336.2419 189.1884 15.11217989172113 S-Net D 1 43186U 18014G 21063.68386827 .00000750 00000-0 70137-4 0 9990 2 43186 97.6838 333.1210 0012459 75.8561 284.4045 14.96980511168625 S-Net B 1 43187U 18014H 21063.48322411 .00000769 00000-0 71780-4 0 9993 2 43187 97.6835 332.8941 0012452 76.3891 283.8717 14.96979924168596 S-Net A 1 43188U 18014J 21063.48318920 .00000759 00000-0 70962-4 0 9994 2 43188 97.6839 332.9341 0012439 76.4377 283.8230 14.96978566168592 S-Net C 1 43189U 18014K 21063.68420286 .00000794 00000-0 74016-4 0 9999 2 43189 97.6835 333.0850 0012462 75.7954 284.4651 14.96979253167176 FMN 1 1 43192U 18015A 21063.87571678 .00004624 00000-0 17588-3 0 9993 2 43192 97.4709 198.8991 0013576 248.7876 230.2071 15.27198250171628 Shaonian Xing 1 43199U 18015H 21063.87270981 .00003175 00000-0 12259-3 0 9993 2 43199 97.4497 196.4212 0014626 259.8321 224.2176 15.26930130171689 SurfSat 1 43614U 18070B 21063.25985794 .00006285 00000-0 15143-3 0 9993 2 43614 93.0230 262.2845 0016680 57.8782 302.4089 15.41124567138468 CP-7 DAVE 1 43615U 18070C 21063.25865088 .00005968 00000-0 14500-3 0 9990 2 43615 93.0232 262.2530 0016872 57.6750 302.6136 15.40872222138459 ELFIN-B 1 43616U 18070D 21063.78378586 .00007556 00000-0 16985-3 0 9995 2 43616 93.0192 262.5511 0016701 55.0099 305.2722 15.43197183138624 ELFIN-A 1 43617U 18070E 21063.51263309 .00009606 00000-0 21336-3 0 9997 2 43617 93.0246 263.1852 0016003 53.3251 306.9474 15.43553134138596 STARS-Me Mother 1 43640U 98067PQ 21063.28324788 .00078506 00000-0 40921-3 0 9996 2 43640 51.6309 59.8446 0002350 353.5041 6.5929 15.80207814137570 CubeBel 1 1 43666U 18083E 21063.84992970 .00001908 00000-0 94303-4 0 9996 2 43666 97.4669 93.4960 0015187 167.1870 298.5803 15.18978823130136 Changshagaoxin 1 43669U 18083H 21063.82392319 .00001161 00000-0 60608-4 0 9990 2 43669 97.4562 90.8640 0011315 159.5391 306.5189 15.17839048130017 Ten-Koh 1 43677U 18084G 21063.32128077 .00000207 00000-0 27069-4 0 9997 2 43677 97.9046 186.1936 0016519 26.3746 333.8309 14.90410686127646 PO-101 1 43678U 18084H 21063.81301781 -.00000258 00000-0 -19841-4 0 9994 2 43678 97.9076 188.6582 0011037 43.4701 316.7395 14.91710774127833 IRVINE 01 1 43693U 18088D 21063.51005407 .00005965 00000-0 23898-3 0 9992 2 43693 85.0309 264.6573 0018742 56.8900 303.4139 15.24643942128447 QO-100 1 43700U 18090A 21063.26598605 .00000134 00000-0 00000-0 0 9993 2 43700 0.0181 140.8379 0002435 243.1890 259.7321 1.00272017 8310 Reaktor Hello World 1 43743U 18096AA 21063.25131423 .00002984 00000-0 11056-3 0 9997 2 43743 97.3939 141.5628 0015755 291.0002 68.9552 15.28323851126065 MinXSS-2 1 43758U 18099A 21063.42426685 .00000917 00000-0 86812-4 0 9999 2 43758 97.6778 136.7534 0016565 45.1203 315.1360 14.95933233122815 AO-95 1 43770U 18099N 21063.45411000 .00000398 00000-0 41307-4 0 9994 2 43770 97.6759 135.9145 0015542 52.7781 307.4856 14.95213982122766 RANGE-B 1 43772U 18099Q 21063.43567574 .00000505 00000-0 50688-4 0 9994 2 43772 97.6842 136.7350 0015010 41.0944 319.1404 14.95485842122765 RANGE-A 1 43773U 18099R 21063.45290277 .00000239 00000-0 26879-4 0 9999 2 43773 97.6697 135.3374 0014346 41.1209 319.1090 14.95134262122758 MOVE-II 1 43780U 18099Y 21063.45587569 .00000761 00000-0 73303-4 0 9994 2 43780 97.6772 136.3372 0014317 50.4720 309.7764 14.95754814122774 SNUSat 2 1 43782U 18099AA 21063.43710777 .00000128 00000-0 16725-4 0 9995 2 43782 97.6760 136.2023 0013635 40.5452 319.6782 14.95464799122779 SnugLite 1 43784U 18099AC 21063.45399186 .00000390 00000-0 40184-4 0 9993 2 43784 97.6721 135.9731 0015951 47.0518 313.2038 14.95579283122799 ITASat 1 1 43786U 18099AE 21063.46133935 .00000501 00000-0 50302-4 0 9991 2 43786 97.6776 136.5262 0016053 46.4464 313.8087 14.95522397122798 EAGLET 1 1 43790U 18099AJ 21063.45429709 .00000114 00000-0 15306-4 0 9997 2 43790 97.6765 136.8886 0014457 50.3681 309.8814 14.95897784122515 ESEO 1 43792U 18099AL 21063.15642208 .00000440 00000-0 44604-4 0 9992 2 43792 97.6739 136.2673 0014487 49.0075 311.2397 14.95697737122521 CSIM 1 43793U 18099AM 21063.16969377 .00000526 00000-0 51400-4 0 9990 2 43793 97.6760 136.5069 0013851 45.9840 314.2520 14.96412953122524 Astrocast 0.1 1 43798U 18099AS 21063.48405317 .00001054 00000-0 98816-4 0 9998 2 43798 97.6773 137.0772 0013039 32.6276 327.5749 14.96053861122826 JO-97 1 43803U 18099AX 21063.44172210 .00000183 00000-0 21505-4 0 9997 2 43803 97.6741 136.2731 0016102 46.3267 313.9285 14.95748229122798 Suomi 100 1 43804U 18099AY 21063.17777283 .00000153 00000-0 18871-4 0 9998 2 43804 97.6738 135.9892 0016154 47.0675 313.1898 14.95724127122767 Al Farabi 2 1 43805U 18099AZ 21063.52768744 .00000680 00000-0 65755-4 0 9998 2 43805 97.6737 136.5027 0015952 46.8937 313.3647 14.95908673122828 CHOMPTT 1 43855U 18104G 21063.31866883 .00002209 00000-0 90139-4 0 9993 2 43855 85.0406 3.1749 0017466 166.4486 193.7229 15.23651764123080 ISAT 1 43879U 18111D 21063.69159677 .00000778 00000-0 73466-4 0 9997 2 43879 97.6909 332.7692 0014510 93.1968 267.0942 14.96504640117381 UWE-4 1 43880U 18111E 21063.69632703 .00001226 00000-0 11210-3 0 9992 2 43880 97.6938 333.1880 0014013 94.2303 266.0520 14.96749449117415 Sparrow 1 43881U 18111F 21063.47022903 .00000569 00000-0 54673-4 0 9994 2 43881 97.6936 333.0783 0013723 92.8270 267.4522 14.96794645119382 Lume 1 1 43908U 18111AJ 21063.67780416 .00002473 00000-0 98953-4 0 9991 2 43908 97.2443 321.6951 0019291 305.8205 54.1241 15.25838408121697 FO-98 1 43933U 19003B 21063.09781810 .00015596 00000-0 63501-3 0 9995 2 43933 97.1966 108.5527 0018216 51.9298 308.3580 15.24420726118046 FO-99 1 43937U 19003F 21063.83154621 .00002766 00000-0 11182-3 0 9998 2 43937 97.1916 111.1520 0024138 27.6711 332.5807 15.25280932118313 Delphini 1 1 44030U 98067PW 21063.85548415 .00614355 19566-3 81706-3 0 9992 2 44030 51.6225 52.9297 0004289 81.1682 278.9816 16.06063212119589 MYSat 1 1 44045U 18092F 21063.43511468 .00008926 00000-0 23855-3 0 9992 2 44045 51.6373 218.2415 0010846 182.6698 177.4230 15.38804658115285 AstroCast 0.2 1 44083U 19018F 21063.66865542 .00002141 00000-0 96194-4 0 9993 2 44083 97.3865 126.6668 0012389 347.5227 12.5701 15.22165336106958 AISTechSat 3 1 44103U 19018AB 21063.80669154 .00001506 00000-0 65424-4 0 9999 2 44103 97.3732 127.1362 0012965 0.2254 93.6266 15.23765238107072 AISat 1 1 44104U 19018AC 21063.17680385 .00001933 00000-0 62611-4 0 9998 2 44104 97.4346 140.1409 0057444 11.6804 348.5755 15.31732684107556 Raavana-1 1 44329U 98067QE 21063.50097702 .00041621 00000-0 37087-3 0 9996 2 44329 51.6354 102.9421 0003573 277.5828 82.4763 15.68021318 97645 Uguisu 1 44330U 98067QF 21063.47296317 .00040996 00000-0 36923-3 0 9999 2 44330 51.6335 103.4381 0003559 276.6562 83.4029 15.67765150 97617 NepaliSat-1 1 44331U 98067QG 21063.49289477 .00041171 00000-0 36738-3 0 9991 2 44331 51.6330 102.8212 0003638 280.3963 79.6623 15.67990972 97635 Prox-1 1 44339U 19036A 21063.25556844 .00001284 00000-0 25297-3 0 9996 2 44339 23.9998 276.6725 0010666 112.4441 247.7181 14.53402245 89889 Oculus-ASR 1 44348U 19036K 21063.43064406 .00021357 00000-0 30099-3 0 9993 2 44348 28.5148 111.1316 0342775 212.7020 145.1913 15.08745485 93013 Armadillo 1 44352U 19036P 21063.41306348 .00032840 00000-0 44294-3 0 9991 2 44352 28.5311 96.9439 0318958 234.3086 122.7426 15.14491583 93108 NO-104 1 44354U 19036R 21063.49378926 .00022995 00000-0 31727-3 0 9999 2 44354 28.5305 105.3001 0338350 220.4332 137.0649 15.10097638 93072 NO-103 1 44355U 19036S 21063.33842461 .00049047 00000-0 59263-3 0 9995 2 44355 28.5298 76.4365 0291543 267.3925 89.3269 15.22214498 93351 CP9 1 44360U 19036X 21063.58219558 .00109273 -37160-5 95198-3 0 9991 2 44360 28.5101 31.5468 0238620 341.9404 17.2837 15.38928931 93682 Move-IIb 1 44398U 19038N 21063.78134649 .00002287 00000-0 13171-3 0 9998 2 44398 97.5700 28.3643 0023620 314.0934 45.8354 15.13228497 91934 SONATE 1 44400U 19038Q 21063.58461250 .00000798 00000-0 49609-4 0 9992 2 44400 97.5742 28.1129 0024024 313.7021 46.2214 15.12354338 91880 BeeSat 9 1 44412U 19038AC 21063.32347168 .00002046 00000-0 11927-3 0 9997 2 44412 97.5754 28.0571 0021292 319.9633 40.0027 15.12958021 91554 JAISAT-1 1 44419U 19038F 21063.32684554 .00002027 00000-0 11667-3 0 9997 2 44419 97.5758 28.5245 0020115 318.4685 41.5017 15.13442215 91898 LightSail-2 1 44420U 19036AC 21063.64119248 .00009460 00000-0 19350-2 0 9999 2 44420 24.0079 260.0643 0009918 137.9673 222.1581 14.58845778 88286 Taurus 1 1 44530U 19059C 21063.68657733 .00000836 00000-0 24747-3 0 9991 2 44530 98.5535 153.1587 0015565 102.0146 258.2795 14.45925260 77942 Duchifat 3 1 44854U 19089C 21063.24539980 .00000776 00000-0 68663-4 0 9997 2 44854 36.9694 2.7487 0008681 358.5612 1.5117 14.99355000 67302 OPS-SAT 1 44878U 19092F 21063.46659249 .00002442 00000-0 12965-3 0 9997 2 44878 97.4720 248.5176 0014168 168.4386 191.7175 15.16197823 66928 TO-108 1 44881U 19093C 21063.64059018 .00000077 00000-0 16706-4 0 9990 2 44881 97.9326 143.5777 0013506 273.9274 86.0401 14.81426169 65211 FloripaSat 1 1 44885U 19093G 21063.71942000 .00000385 00000-0 55000-4 0 9996 2 44885 97.9329 144.0900 0013201 282.4830 77.4915 14.82213784 65253 RS-44 1 44909U 19096E 21063.31526229 .00000038 00000-0 11060-3 0 9995 2 44909 82.5249 182.6594 0216882 339.2052 20.0324 12.79708651 55393 SwampSat-2 1 45115U 19071E 21063.78570783 .00039320 00000-0 81644-3 0 9994 2 45115 51.6371 174.0782 0009574 282.9406 77.0511 15.45248116 61214 HO-107 1 45119U 19071J 21063.43397695 .00004583 00000-0 14365-3 0 9998 2 45119 51.6410 185.8319 0011109 270.6738 89.2971 15.35025574 61032 Phoenix 1 45258U 98067RB 21063.46198191 .00011994 00000-0 18558-3 0 9999 2 45258 51.6398 133.4714 0005036 225.0248 135.0335 15.54502596 58867 AztechSat-1 1 45261U 98067RE 21063.46066246 .00029846 00000-0 37331-3 0 9993 2 45261 51.6378 128.2210 0005642 252.8309 107.2067 15.59535812 58967 QARMAN 1 45263U 98067RG 21063.69425138 .00020201 00000-0 27630-3 0 9996 2 45263 51.6387 129.7824 0005543 246.1845 113.8566 15.57397002 58992 Quetzal 1 1 45598U 98067RL 21063.23926797 .00020006 00000-0 28889-3 0 9994 2 45598 51.6399 135.0053 0002649 337.9096 22.1781 15.55944503 48151 BY70-2 1 45857U 20042B 21063.76629455 .00001268 00000-0 18818-3 0 9999 2 45857 97.9915 140.5972 0011853 182.5919 177.5239 14.76733331 36092 UPMSat 2 1 46276U 20061E 21063.36501105 .00000937 00000-0 51747-4 0 9994 2 46276 97.4422 139.2197 0002254 53.5694 306.5747 15.16305230 27616 AmicalSat 1 46287U 20061R 21063.16954917 .00001127 00000-0 72696-4 0 9995 2 46287 97.4976 138.7112 0004362 97.1822 262.9904 15.10265462 27450 SALSAT 1 46495U 20068K 21063.56759615 .00001366 00000-0 10475-3 0 9996 2 46495 97.6846 1.7438 0018011 67.3268 292.9859 15.03366251 23579 BY70-3 1 46839U 20079N 21063.83937764 .00003941 00000-0 12625-3 0 9993 2 46839 97.2508 139.7805 0006390 207.7725 260.5684 15.32938485 18170 SPOC 1 46921U 98067RR 21063.46768787 .00011885 00000-0 19899-3 0 9999 2 46921 51.6419 138.7807 0002563 44.6506 315.4690 15.52314310 18546 Bobcat-1 1 46922U 98067RS 21063.24566933 .00016526 00000-0 26600-3 0 9990 2 46922 51.6420 139.5534 0002258 42.6303 317.4862 15.53102405 18475 Neutron-1 1 46923U 98067RT 21063.47513717 .00012233 00000-0 20541-3 0 9997 2 46923 51.6419 138.8291 0002444 57.3343 302.7883 15.52203069 18578 CAPE 3 1 47309U 21002A 21063.43657944 .00001787 00000-0 93093-4 0 9993 2 47309 60.6886 324.4596 0022990 337.1587 22.8474 15.20414115 6915 OBJECT B 1 47310U 21002B 21063.82032442 .00002874 00000-0 14063-3 0 9995 2 47310 60.6850 322.9227 0021652 337.6284 22.3856 15.20821605 6965 AO-109 1 47311U 21002C 21063.27791731 .00001693 00000-0 86799-4 0 9992 2 47311 60.6853 324.8087 0019007 336.1786 23.8418 15.21305549 6860 OBJECT D 1 47312U 21002D 21063.40229971 .00011917 00000-0 52871-3 0 9993 2 47312 60.6866 324.2813 0018884 339.5324 20.5004 15.21851139 6870 OBJECT E 1 47313U 21002E 21063.45866709 .00004728 00000-0 21655-3 0 9993 2 47313 60.6865 323.9796 0019508 327.1478 32.8395 15.21940520 6897 MiTEE 1 1 47314U 21002F 21063.44098058 .00003567 00000-0 16376-3 0 9991 2 47314 60.6874 323.8934 0016916 322.1493 37.8403 15.22516290 6915 OBJECT G 1 47315U 21002G 21063.43123298 .00001948 00000-0 94127-4 0 9998 2 47315 60.6863 323.8435 0014823 321.2912 38.7112 15.22790166 6914 OBJECT J 1 47317U 21002J 21063.10565732 .00001358 00000-0 73589-4 0 9991 2 47317 60.6872 325.6756 0022742 335.7539 24.2475 15.20475017 6832 OBJECT K 1 47318U 21002K 21063.43354690 .00001365 00000-0 73845-4 0 9990 2 47318 60.6867 324.4419 0022764 335.6681 24.3328 15.20504924 6884 ExoCube 2 1 47319U 21002L 21063.42007390 .00001490 00000-0 78579-4 0 9990 2 47319 60.6844 324.3698 0020558 336.3139 23.6998 15.20944131 6853 OBJECT M 1 47320U 21002M 21063.14814522 .00002213 00000-0 10983-3 0 9992 2 47320 60.6849 325.3041 0019650 335.0811 24.9324 15.21264255 6891 OBJECT N 1 47345U 21002N 21063.45863044 .00004521 00000-0 20761-3 0 9995 2 47345 60.6864 323.9798 0019487 327.1703 32.8171 15.21939620 6633 UVSQ-SAT 1 47438U 21006AB 21063.42561466 .00001404 00000-0 83288-4 0 9993 2 47438 97.5013 126.4729 0014426 100.2101 260.0757 15.12892717 6170 YUSAT 1 1 47439U 21006AC 21063.42637787 .00001431 00000-0 84900-4 0 9996 2 47439 97.5015 126.4727 0014301 100.4092 259.8751 15.12863129 6179 SOMP 2b 1 47445U 21006AJ 21063.42935025 .00001353 00000-0 80752-4 0 9993 2 47445 97.4985 126.4502 0014048 103.4513 256.8285 15.12745065 6178 IDEASSat 1 47458U 21006AX 21063.43278228 .00001342 00000-0 80424-4 0 9997 2 47458 97.5075 126.4983 0013218 101.9093 258.3621 15.12609343 6179 /EX
